Location: Hilton Head Island
(32.2163°N, 80.7526°W)
Time: 09:27:38
(UTC-04:00)

Explorer 7 - Pass Details

Date: 17 February 2026
Orbit: 430 x 541 km, 50.2° (Epoch: 11 March)

Event Time Altitude Azimuth Distance (km) Brightness Sun altitude
Rises 14:53:05 0° 238° (WSW) 2,393 11.0 35.3°
Reaches altitude 10° 14:55:13 10° 244° (WSW) 1,538 10.3 35.0°
Maximum altitude 14:58:34 49° 320° (NW) 583 7.3 34.5°
Drops below altitude 10° 15:02:03 10° 37° (NE) 1,591 8.8 34.0°
Sets 15:04:17 0° 43° (NE) 2,487 9.7 33.7°
